weather.gov     
National Weather Service

Terminal Aerodrome Forecast
NWS Homepage
This page is being discontinued on March 12, 2014.
The same data is available at this site. Please update your bookmarks.
Thank you, and we apologize for the inconvenience.
Please send an email to SR-SRH.Webmaster@noaa.gov with any concerns.


Current Version
Previous Version:    01  02  03  04  05  06  07  08  09  10  11  12  13  14  
[Printable]
710
FTUS41 KGYX 220530
TAFRKD
TAF
KRKD 220530Z 2206/2306 02012KT 6SM -RA BR OVC010
     FM220900 01015G25KT 4SM -RA BR OVC005
     FM221600 05017G25KT 4SM -RA BR OVC007 WS020/03050KT
      AMD LTD TO CLD VIS AND WIND=




710
FTUS41 KGYX 220530
TAFRKD
TAF
KRKD 220530Z 2206/2306 02012KT 6SM -RA BR OVC010
     FM220900 01015G25KT 4SM -RA BR OVC005
     FM221600 05017G25KT 4SM -RA BR OVC007 WS020/03050KT
      AMD LTD TO CLD VIS AND WIND=


U.S. Dept. of Commerce
NOAA National Weather Service
1325 East West Highway
Silver Spring, MD 20910
E-mail: w-nws.webmaster@noaa.gov
Page last modified: May 16, 2007
NATIONAL WEATHER SERVICE: for Safety, for Work, for Fun - FOR LIFE